FENGYUN 1C DEB, 31030

Orbit data source: Space-Track

FENGYUN 1C DEB, 31030 is space debris in SSO originally from a launch on Mon, 10 May 1999 UTC launched from the Taiyaun Space Center, China (TSC). Fengyun 1C debris stems from the Chinese weather satellite Fengyun-1C, which was intentionally destroyed by a Chinese anti-satellite missile in 2007. This event dramatically increased the amount of space debris, with thousands of trackable fragments posing hazards to satellites and human spaceflight. The Fengyun 1C debris cloud has become a focal point in discussions about space sustainability and the need for international regulations to prevent the creation of new debris.

Loading next visibility...
Identifier
31030, 1999-025BDY
Orbit
SSO
Country
Flag of CNCN / PRC
Related business
Manufacturer
Unknown
Mission
Spacecraft
Bus & Motor
Unknown
Mass
Unknown
Launch date (UTC)
1999-05-10 (27 years ago)
Launch vehicle
Unknown
Launch site
Taiyaun Space Center, China (TSC)
Object type
Payload
Rocket body
Debris
Shape & HBR
Unknown shape, 0.1 m
Radar Cross Section
Medium (>0.1 m² and <1 m²)

Expand to show TLE details & history
Last TLE update: 4 days ago

TLE from 4 days ago
0 FENGYUN 1C DEB
1 31030U 99025BDY 26160.96973468  .00001445  00000-0  64161-3 0  9994
2 31030  98.7481 227.1942 0025345 282.2198 255.9136 14.24402659992552
Epoch: 2026-06-09T23:16Z
TLE epoch observation values (Epoch: 2026-06-09T23:16:25.076Z)
Latitude
2.01908°
Longitude
160.06429°
Altitude
817.66 km
Speed
7.442 km/s
True Right ascension
03h 10m 00s
True Declination
2° 00' 26"
Sunlit
Object was in daylight at epoch
Visualization orbit readout
Latitude
Unknown
Longitude
Unknown
Altitude
Unknown
Speed
Unknown
Apparent Right ascension
Unknown
Apparent Declination
Unknown
Sunlit
N/A
Visualization observer readout
Local Sidereal Time
04:17:20
Azimuth
Unknown
Elevation
Unknown
Doppler factor
Unknown
Orbital elements
Apogee altitude
825.869 km
Perigee altitude
789.444 km
Semi-major axis
7,185.793 km
Eccentricity
0.00253
Inclination
98.7481°
RAAN
227.1942°
Arg. of periapsis
282.2198°
True anomaly
255.63212°
Mean anomaly
255.9136°
Eccentric anomaly
255.77284°
Mean motion
3.56313 °/min
Orbital period
101.03 mins
BSTAR
0.00064161
Loading maneuver chart data...
Computing Atmospheric mass density...

Documentation

Showing up to 5 results
|